H1 CPF 2 NER 2021 9 8 9 251 01 glonass106 H2 0705201 9106 32275 2021 9 8 0 0 0 2021 9 11 23 45 0 900 1 1 0 0 0 1 H9 10 0 59465 0.00000 0 12789659.067 -4306780.162 -21652441.955 10 0 59465 900.00000 0 15180256.247 -3309318.186 -20238597.883 10 0 59465 1800.00000 0 17455436.264 -2568437.166 -18431990.170 10 0 59465 2700.00000 0 19547610.945 -2075734.836 -16267688.425 10 0 59465 3600.00000 0 21393870.644 -1810475.970 -13787695.639 10 0 59465 4500.00000 0 22938483.888 -1740686.194 -11040136.091 10 0 59465 5400.00000 0 24135114.249 -1824725.195 -8078324.657 10 0 59465 6300.00000 0 24948662.100 -2013272.609 -4959735.091 10 0 59465 7200.00000 0 25356654.415 -2251642.434 -1744887.088 10 0 59465 8100.00000 0 25350124.583 -2482327.836 1503826.452 10 0 59465 9000.00000 0 24933945.409 -2647668.521 4723349.270 10 0 59465 9900.00000 0 24126601.319 -2692527.564 7851184.965 10 0 59465 10800.00000 0 22959409.309 -2566864.112 10826609.765 10 0 59465 11700.00000 0 21475221.219 -2228092.692 13591851.132 10 0 59465 12600.00000 0 19726661.702 -1643128.850 16093209.092 10 0 59465 13500.00000 0 17773975.603 -790033.986 18282098.561 10 0 59465 14400.00000 0 15682574.715 340810.905 20115992.503 10 0 59465 15300.00000 0 13520386.387 1746053.087 21559247.716 10 0 59465 16200.00000 0 11355114.510 3409266.217 22583797.489 10 0 59465 17100.00000 0 9251526.930 5301404.481 23169697.936 10 0 59465 18000.00000 0 7268882.108 7381795.115 23305517.514 10 0 59465 18900.00000 0 5458601.950 9599629.338 22988562.284 10 0 59465 19800.00000 0 3862287.310 11895890.846 22224932.393 10 0 59465 20700.00000 0 2510158.553 14205642.538 21029408.395 10 0 59465 21600.00000 0 1419985.661 16460577.175 19425169.194 10 0 59465 22500.00000 0 596552.035 18591726.275 17443346.459 10 0 59465 23400.00000 0 31673.881 20532214.568 15122423.589 10 0 59465 24300.00000 0 -295226.374 22219945.132 12507490.348 10 0 59465 25200.00000 0 -416017.416 23600102.845 9649367.165 10 0 59465 26100.00000 0 -372274.360 24627370.978 6603615.991 10 0 59465 27000.00000 0 -213279.767 25267767.703 3429456.962 10 0 59465 27900.00000 0 6304.222 25500025.055 188612.227 10 0 59465 28800.00000 0 228993.190 25316452.118 -3055899.907 10 0 59465 29700.00000 0 397157.859 24723246.063 -6240996.355 10 0 59465 30600.00000 0 455707.199 23740238.028 -9304761.440 10 0 59465 31500.00000 0 354662.645 22400084.811 -12187655.009 10 0 59465 32400.00000 0 51513.557 20746940.785 -14833672.462 10 0 59465 33300.00000 0 -486746.458 18834666.327 -17191433.719 10 0 59465 34200.00000 0 -1281989.012 16724648.481 -19215179.815 10 0 59465 35100.00000 0 -2343795.519 14483325.582 -20865657.985 10 0 59465 36000.00000 0 -3668826.039 12179519.661 -22110878.535 10 0 59465 36900.00000 0 -5240739.353 9881688.110 -22926729.450 10 0 59465 37800.00000 0 -7030668.138 7655209.010 -23297437.608 10 0 59465 38700.00000 0 -8998229.935 5559812.628 -23215868.468 10 0 59465 39600.00000 0 -11093032.245 3647265.272 -22683659.080 10 0 59465 40500.00000 0 -13256609.648 1959400.791 -21711182.377 10 0 59465 41400.00000 0 -15424712.944 526580.406 -20317343.691 10 0 59465 42300.00000 0 -17529855.566 -633356.258 -18529213.483 10 0 59465 43200.00000 0 -19504011.913 -1515606.629 -16381503.194 10 0 59465 44100.00000 0 -21281355.699 -2128366.902 -13915893.980 10 0 59465 45000.00000 0 -22800924.581 -2492242.804 -11180230.906 10 0 59465 45900.00000 0 -24009100.134 -2639135.214 -8227597.719 10 0 59465 46800.00000 0 -24861799.787 -2610648.328 -5115289.687 10 0 59465 47700.00000 0 -25326288.981 -2456088.081 -1903704.186 10 0 59465 48600.00000 0 -25382537.636 -2230135.813 1344829.610 10 0 59465 49500.00000 0 -25024063.899 -1990295.866 4567259.302 10 0 59465 50400.00000 0 -24258229.535 -1794225.332 7701032.402 10 0 59465 51300.00000 0 -23105974.311 -1697059.268 10685310.195 10 0 59465 52200.00000 0 -21601000.193 -1748844.873 13462148.585 10 0 59465 53100.00000 0 -19788439.236 -1992193.526 15977622.774 10 0 59465 54000.00000 0 -17723060.663 -2460250.463 18182873.961 10 0 59465 54900.00000 0 -15467091.747 -3175068.464 20035057.799 10 0 59465 55800.00000 0 -13087743.282 -4146454.937 21498176.332 10 0 59465 56700.00000 0 -10654542.527 -5371341.941 22543777.502 10 0 59465 57600.00000 0 -8236584.398 -6833706.821 23151508.906 10 0 59465 58500.00000 0 -5899815.024 -8505048.058 23309515.201 10 0 59465 59400.00000 0 -3704460.291 -10345397.746 23014671.532 10 0 59465 60300.00000 0 -1702705.844 -12304829.735 22272648.350 10 0 59465 61200.00000 0 63275.298 -14325401.551 21097806.057 10 0 59465 62100.00000 0 1562865.964 -16343450.030 19512921.116 10 0 59465 63000.00000 0 2778055.136 -18292145.575 17548748.312 10 0 59465 63900.00000 0 3703952.063 -20104198.698 15243427.138 10 0 59465 64800.00000 0 4348743.444 -21714605.880 12641743.195 10 0 59465 65700.00000 0 4733096.262 -23063319.682 9794258.535 10 0 59465 66600.00000 0 4889032.215 -24097730.844 6756327.670 10 0 59465 67500.00000 0 4858322.148 -24774857.739 3587018.382 10 0 59465 68400.00000 0 4690469.255 -25063150.673 347958.595 10 0 59465 69300.00000 0 4440367.349 -24943834.628 -2897867.619 10 0 59465 70200.00000 0 4165734.375 -24411733.544 -6087350.789 10 0 59465 71100.00000 0 3924430.948 -23475541.206 -9158488.835 10 0 59465 72000.00000 0 3771778.411 -22157527.277 -12051597.011 10 0 59465 72900.00000 0 3757990.914 -20492690.957 -14710470.906 10 0 59465 73800.00000 0 3925830.883 -18527398.012 -17083479.462 10 0 59465 74700.00000 0 4308587.586 -16317558.750 -19124566.588 10 0 59465 75600.00000 0 4928464.559 -13926423.478 -20794142.120 10 0 59465 76500.00000 0 5795444.228 -11422087.818 -22059845.307 10 0 59465 77400.00000 0 6906677.760 -8874812.074 -22897166.619 10 0 59465 78300.00000 0 8246426.084 -6354266.111 -23289916.644 10 0 59465 79200.00000 0 9786554.896 -3926813.923 -23230533.771 10 0 59465 80100.00000 0 11487563.340 -1652950.112 -22720225.381 10 0 59465 81000.00000 0 13300103.854 415006.188 -21768940.350 10 0 59465 81900.00000 0 15166930.307 2234865.323 -20395173.682 10 0 59465 82800.00000 0 17025193.642 3776089.042 -18625607.074 10 0 59465 83700.00000 0 18808989.835 5020818.403 -16494592.239 10 0 59465 84600.00000 0 20452054.331 5964366.215 -14043486.546 10 0 59465 85500.00000 0 21890490.787 6615154.713 -11319853.496 10 0 59466 0.00000 0 23065420.401 6994102.320 -8376543.036 10 0 59466 900.00000 0 23925440.850 7133486.250 -5270668.732 10 0 59466 1800.00000 0 24428792.638 7075329.757 -2062502.362 10 0 59466 2700.00000 0 24545140.315 6869382.441 1185694.131 10 0 59466 3600.00000 0 24256895.353 6570779.683 4410875.736 10 0 59466 4500.00000 0 23560023.411 6237480.264 7550437.308 10 0 59466 5400.00000 0 22464302.245 5927590.963 10543428.407 10 0 59466 6300.00000 0 20993018.696 5696691.538 13331736.292 10 0 59466 7200.00000 0 19182116.943 5595273.529 15861213.899 10 0 59466 8100.00000 0 17078833.101 5666401.456 18082730.883 10 0 59466 9000.00000 0 14739872.656 5943695.656 19953127.385 10 0 59466 9900.00000 0 12229206.370 6449722.380 21436052.101 10 0 59466 10800.00000 0 9615576.000 7194859.694 22502668.654 10 0 59466 11700.00000 0 6969813.156 8176687.778 23132216.786 10 0 59466 12600.00000 0 4362082.417 9379930.212 23312417.620 10 0 59466 13500.00000 0 1859162.747 10776949.850 23039715.254 10 0 59466 14400.00000 0 -478120.340 12328779.647 22319349.881 10 0 59466 15300.00000 0 -2597205.603 13986646.385 21165260.752 10 0 59466 16200.00000 0 -4455754.339 15693924.511 19599820.458 10 0 59466 17100.00000 0 -6023175.200 17388439.161 17653405.095 10 0 59466 18000.00000 0 -7281652.487 19005022.411 15363808.067 10 0 59466 18900.00000 0 -8226635.731 20478215.986 12775508.363 10 0 59466 19800.00000 0 -8866770.820 21745007.031 9938806.984 10 0 59466 20700.00000 0 -9223276.381 22747481.774 6908848.179 10 0 59466 21600.00000 0 -9328792.628 23435285.086 3744544.454 10 0 59466 22500.00000 0 -9225752.239 23767781.816 507426.544 10 0 59466 23400.00000 0 -8964343.085 23715828.231 -2739558.672 10 0 59466 24300.00000 0 -8600150.123 23263078.316 -5933278.231 10 0 59466 25200.00000 0 -8191577.307 22406769.382 -9011646.407 10 0 59466 26100.00000 0 -7797159.713 21157953.533 -11914836.426 10 0 59466 27000.00000 0 -7472880.553 19541165.067 -14586446.377 10 0 59466 27900.00000 0 -7269607.394 17593537.684 -16974596.255 10 0 59466 28800.00000 0 -7230756.468 15363408.664 -19032934.579 10 0 59466 29700.00000 0 -7390284.117 12908468.527 -20721535.240 10 0 59466 30600.00000 0 -7771090.269 10293533.554 -22007667.616 10 0 59466 31500.00000 0 -8383901.253 7588034.141 -22866425.595 10 0 59466 32400.00000 0 -9226678.992 4863323.330 -23281204.141 10 0 59466 33300.00000 0 -10284581.409 2189917.010 -23244014.962 10 0 59466 34200.00000 0 -11530475.857 -365220.149 -22755635.837 10 0 59466 35100.00000 0 -12925984.258 -2741231.266 -21825591.297 10 0 59466 36000.00000 0 -14423016.581 -4885661.289 -20471965.318 10 0 59466 36900.00000 0 -15965728.893 -6756394.429 -18721049.740 10 0 59466 37800.00000 0 -17492824.567 -8323155.758 -16606835.030 10 0 59466 38700.00000 0 -18940102.842 -9568515.879 -14170352.908 10 0 59466 39600.00000 0 -20243148.453 -10488358.031 -11458883.123 10 0 59466 40500.00000 0 -21340049.972 -11091789.374 -8525039.259 10 0 59466 41400.00000 0 -22174033.075 -11400501.338 -5425750.818 10 0 59466 42300.00000 0 -22695898.214 -11447606.802 -2221161.082 10 0 59466 43200.00000 0 -22866160.174 -11276003.880 1026538.104 10 0 59466 44100.00000 0 -22656799.266 -10936335.894 4254312.079 10 0 59466 45000.00000 0 -22052550.075 -10484634.120 7399506.035 10 0 59466 45900.00000 0 -21051672.978 -9979743.254 10401060.799 10 0 59466 46800.00000 0 -19666175.291 -9480638.699 13200697.918 10 0 59466 47700.00000 0 -17921472.012 -9043749.269 15744050.846 10 0 59466 48600.00000 0 -15855499.533 -8720398.661 17981720.243 10 0 59466 49500.00000 0 -13517318.527 -8554473.967 19870232.963 10 0 59466 50400.00000 0 -10965263.640 -8580419.884 21372886.204 10 0 59466 51300.00000 0 -8264716.315 -8821643.550 22460460.680 10 0 59466 52200.00000 0 -5485592.734 -9289397.676 23111789.231 10 0 59466 53100.00000 0 -2699650.725 -9982189.596 23314169.960 10 0 59466 54000.00000 0 22273.173 -10885741.823 23063616.009 10 0 59466 54900.00000 0 2612982.352 -11973506.636 22364937.020 10 0 59466 55800.00000 0 5011482.100 -13207714.010 21231650.463 10 0 59466 56700.00000 0 7165279.022 -14540909.781 19685724.106 10 0 59466 57600.00000 0 9032322.831 -15917920.325 17757154.082 10 0 59466 58500.00000 0 10582510.140 -17278161.826 15483386.132 10 0 59466 59400.00000 0 11798688.108 -18558197.541 12908590.714 10 0 59466 60300.00000 0 12677116.701 -19694435.666 10082805.542 10 0 59466 61200.00000 0 13227370.834 -20625854.072 7060962.036 10 0 59466 62100.00000 0 13471687.475 -21296636.791 3901814.594 10 0 59466 63000.00000 0 13443786.105 -21658610.511 666793.722 10 0 59466 63900.00000 0 13187213.310 -21673377.587 -2581194.043 10 0 59466 64800.00000 0 12753282.564 -21314054.870 -5778995.410 10 0 59466 65700.00000 0 12198697.382 -20566544.249 -8864444.129 10 0 59466 66600.00000 0 11582959.455 -19430280.766 -11777574.377 10 0 59466 67500.00000 0 10965672.365 -17918426.287 -14461789.550 10 0 59466 68400.00000 0 10403855.701 -16057500.247 -16864963.273 10 0 59466 69300.00000 0 9949383.636 -13886462.758 -18940450.980 10 0 59466 70200.00000 0 9646656.458 -11455288.388 -20647992.598 10 0 59466 71100.00000 0 9530603.365 -8823090.057 -21954489.240 10 0 59466 72000.00000 0 9625100.547 -6055871.272 -22834639.419 10 0 59466 72900.00000 0 9941870.907 -3223999.994 -23271423.268 10 0 59466 73800.00000 0 10479911.410 -399508.716 -23256426.173 10 0 59466 74700.00000 0 11225471.843 2346667.644 -22789996.274 10 0 59466 75600.00000 0 12152585.760 4947402.283 -21881233.334 10 0 59466 76500.00000 0 13224131.351 7341924.028 -20547809.530 10 0 59466 77400.00000 0 14393377.884 9478097.161 -18815625.715 10 0 59466 78300.00000 0 15605953.176 11314340.115 -16718309.659 10 0 59466 79200.00000 0 16802149.913 12821104.536 -14296565.617 10 0 59466 80100.00000 0 17919474.423 13981854.290 -11597387.417 10 0 59466 81000.00000 0 18895331.204 14793504.777 -8673149.824 10 0 59466 81900.00000 0 19669730.637 15266305.329 -5580595.307 10 0 59466 82800.00000 0 20187906.086 15423170.537 -2379735.595 10 0 59466 83700.00000 0 20402730.194 15298489.490 867310.863 10 0 59466 84600.00000 0 20276828.358 14936463.742 4097523.121 10 0 59466 85500.00000 0 19784299.938 14389044.555 7248200.036 10 0 59467 0.00000 0 18911974.184 13713556.869 10258176.817 10 0 59467 900.00000 0 17660146.759 12970110.731 13069012.358 10 0 59467 1800.00000 0 16042766.305 12218909.150 15626123.232 10 0 59467 2700.00000 0 14087060.104 11517567.187 17879843.420 10 0 59467 3600.00000 0 11832615.498 10918554.305 19786388.475 10 0 59467 4500.00000 0 9329953.131 10466868.813 21308705.725 10 0 59467 5400.00000 0 6638651.028 10198042.101 22417194.250 10 0 59467 6300.00000 0 3825096.497 10136557.001 23090280.883 10 0 59467 7200.00000 0 959958.552 10294747.049 23314841.207 10 0 59467 8100.00000 0 -1884514.971 10672223.301 23086457.480 10 0 59467 9000.00000 0 -4637264.170 11255853.303 22409508.423 10 0 59467 9900.00000 0 -7231133.372 12020293.599 21297088.874 10 0 59467 10800.00000 0 -9605424.823 12929054.068 19770760.466 10 0 59467 11700.00000 0 -11708184.131 13936049.920 17860137.607 10 0 59467 12600.00000 0 -13498122.760 14987576.565 15602316.229 10 0 59467 13500.00000 0 -14946097.965 16024624.647 13041155.798 10 0 59467 14400.00000 0 -16036088.839 16985437.846 10226428.046 10 0 59467 15300.00000 0 -16765628.182 17808205.524 7212848.736 10 0 59467 16200.00000 0 -17145672.769 18433776.304 4059011.258 10 0 59467 17100.00000 0 -17199918.295 18808277.409 826242.984 10 0 59467 18000.00000 0 -16963588.724 18885528.444 -2422592.777 10 0 59467 18900.00000 0 -16481752.173 18629146.800 -5624325.230 10 0 59467 19800.00000 0 -15807235.479 18014254.918 -8716710.310 10 0 59467 20700.00000 0 -14998226.655 17028716.588 -11639645.713 10 0 59467 21600.00000 0 -14115667.537 15673849.441 -14336342.504 10 0 59467 22500.00000 0 -13220547.615 13964583.046 -16754430.044 10 0 59467 23400.00000 0 -12371213.952 11929055.556 -18846972.501 10 0 59467 24300.00000 0 -11620811.035 9607665.428 -20573377.356 10 0 59467 25200.00000 0 -11014958.531 7051617.569 -21900178.671 10 0 59467 26100.00000 0 -10589764.549 4321024.337 -22801680.506 10 0 59467 27000.00000 0 -10370257.574 1482640.152 -23260448.791 10 0 59467 27900.00000 0 -10369302.418 -1392676.579 -23267642.954 10 0 59467 28800.00000 0 -10587045.161 -4232669.322 -22823181.552 10 0 59467 29700.00000 0 -11010909.817 -6966445.554 -21935739.333 10 0 59467 30600.00000 0 -11616146.480 -9527181.543 -20622576.102 10 0 59467 31500.00000 0 -12366907.659 -11854658.478 -18909200.818 10 0 59467 32400.00000 0 -13217807.568 -13897525.805 -16828877.310 10 0 59467 33300.00000 0 -14115898.944 -15615198.868 -14421980.824 10 0 59467 34200.00000 0 -15002984.499 -16979312.912 -11735217.455 10 0 59467 35100.00000 0 -15818166.021 -17974673.962 -8820721.104 10 0 59467 36000.00000 0 -16500524.017 -18599667.861 -5735044.963 10 0 59467 36900.00000 0 -16991815.136 -18866111.210 -2538066.823 10 0 59467 37800.00000 0 -17239073.642 -18798551.284 708170.810 10 0 59467 38700.00000 0 -17197007.052 -18433045.032 3940663.367 10 0 59467 39600.00000 0 -16830084.484 -17815469.043 7096666.164 10 0 59467 40500.00000 0 -16114229.106 -16999432.127 10114911.779 10 0 59467 41400.00000 0 -15038042.558 -16043878.784 12936799.125 10 0 59467 42300.00000 0 -13603508.867 -15010484.817 15507530.849 10 0 59467 43200.00000 0 -11826147.172 -13960954.991 17777176.998 10 0 59467 44100.00000 0 -9734605.610 -12954336.637 19701644.322 10 0 59467 45000.00000 0 -7369712.142 -12044462.342 21243532.466 10 0 59467 45900.00000 0 -4783020.697 -11277629.298 22372860.700 10 0 59467 46800.00000 0 -2034911.989 -10690612.845 23067651.266 10 0 59467 47700.00000 0 807673.004 -10309097.707 23314358.218 10 0 59467 48600.00000 0 3673773.727 -10146592.840 23108133.515 10 0 59467 49500.00000 0 6491120.345 -10203875.599 22452925.144 10 0 59467 50400.00000 0 9188901.752 -10468988.749 21361405.134 10 0 59467 51300.00000 0 11700477.042 -10917790.685 19854728.455 10 0 59467 52200.00000 0 13965918.300 -11515036.014 17962126.916 10 0 59467 53100.00000 0 15934279.226 -12215941.290 15720345.398 10 0 59467 54000.00000 0 17565495.485 -12968170.121 13172930.755 10 0 59467 54900.00000 0 18831837.789 -13714154.017 10369386.707 10 0 59467 55800.00000 0 19718857.264 -14393650.898 7364210.923 10 0 59467 56700.00000 0 20225783.968 -14946432.857 4215832.958 10 0 59467 57600.00000 0 20365362.409 -15314989.016 985473.899 10 0 59467 58500.00000 0 20163131.685 -15447128.464 -2264049.543 10 0 59467 59400.00000 0 19656181.420 -15298372.356 -5469552.539 10 0 59467 60300.00000 0 18891436.953 -14834033.100 -8568716.661 10 0 59467 61200.00000 0 17923547.078 -14030891.885 -11501306.444 10 0 59467 62100.00000 0 16812464.531 -12878402.906 -14210343.722 10 0 59467 63000.00000 0 15620822.133 -11379372.730 -16643216.417 10 0 59467 63900.00000 0 14411215.972 -9550085.633 -18752699.937 10 0 59467 64800.00000 0 13243510.515 -7419869.053 -20497871.467 10 0 59467 65700.00000 0 12172279.219 -5030116.865 -21844899.797 10 0 59467 66600.00000 0 11244488.141 -2432810.891 -22767695.907 10 0 59467 67500.00000 0 10497519.343 311398.189 -23248412.498 10 0 59467 68400.00000 0 9957616.433 3135471.197 -23277783.584 10 0 59467 69300.00000 0 9638816.612 5968527.874 -22855298.295 10 0 59467 70200.00000 0 9542413.153 8738556.326 -21989206.126 10 0 59467 71100.00000 0 9656970.036 11375172.947 -20696353.899 10 0 59467 72000.00000 0 9958887.445 13812319.143 -19001857.715 10 0 59467 72900.00000 0 10413493.877 15990783.877 -16938616.146 10 0 59467 73800.00000 0 10976618.652 17860448.295 -14546673.751 10 0 59467 74700.00000 0 11596578.578 19382159.875 -11872446.849 10 0 59467 75600.00000 0 12216495.125 20529159.019 -8967826.071 10 0 59467 76500.00000 0 12776844.534 21287999.370 -5889172.587 10 0 59467 77400.00000 0 13218133.376 21658924.080 -2696227.193 10 0 59467 78300.00000 0 13483586.627 21655683.004 549046.816 10 0 59467 79200.00000 0 13521734.631 21304799.028 3783664.657 10 0 59467 80100.00000 0 13288789.389 20644314.838 6944841.509 10 0 59467 81000.00000 0 12750709.377 19722073.218 9971210.589 10 0 59467 81900.00000 0 11884865.010 18593603.513 12804014.069 10 0 59467 82800.00000 0 10681233.708 17319703.418 15388243.506 10 0 59467 83700.00000 0 9143073.126 15963817.929 17673707.580 10 0 59467 84600.00000 0 7287042.993 14589325.744 19616006.481 10 0 59467 85500.00000 0 5142769.158 13256847.145 21177394.067 10 0 59468 0.00000 0 2751866.674 12021686.278 22327511.285 10 0 59468 900.00000 0 166460.949 10931515.304 23043976.927 10 0 59468 1800.00000 0 -2552731.778 10024396.562 23312824.192 10 0 59468 2700.00000 0 -5338687.267 9327227.094 23128774.944 10 0 59468 3600.00000 0 -8120624.633 8854668.700 22495346.169 10 0 59468 4500.00000 0 -10826721.493 8608609.694 21424786.307 10 0 59468 5400.00000 0 -13386880.769 8578180.161 19937842.370 10 0 59468 6300.00000 0 -15735434.710 8740320.210 18063361.793 10 0 59468 7200.00000 0 -17813673.931 9060877.244 15837736.190 10 0 59468 8100.00000 0 -19572096.395 9496185.949 13304197.222 10 0 59468 9000.00000 0 -20972282.696 9995064.251 10511977.753 10 0 59468 9900.00000 0 -21988319.304 10501140.730 7515354.350 10 0 59468 10800.00000 0 -22607710.453 10955414.716 4372589.657 10 0 59468 11700.00000 0 -22831740.670 11298940.206 1144795.402 10 0 59468 12600.00000 0 -22675273.117 11475519.302 -2105261.305 10 0 59468 13500.00000 0 -22165992.898 11434290.286 -5314384.524 10 0 59468 14400.00000 0 -21343127.871 11132099.828 -8420184.256 10 0 59468 15300.00000 0 -20255701.793 10535558.069 -11362294.509 10 0 59468 16200.00000 0 -18960394.305 9622688.791 -14083550.325 10 0 59468 17100.00000 0 -17519098.789 8384104.142 -16531100.367 10 0 59468 18000.00000 0 -15996281.701 6823653.736 -18657433.148 10 0 59468 18900.00000 0 -14456254.990 4958520.128 -20421297.067 10 0 59468 19800.00000 0 -12960476.444 2818756.020 -21788496.771 10 0 59468 20700.00000 0 -11564991.282 446282.088 -22732550.901 10 0 59468 21600.00000 0 -10318121.821 -2106613.343 -23235199.289 10 0 59468 22500.00000 0 -9258501.349 -4779210.843 -23286750.559 10 0 59468 23400.00000 0 -8413533.626 -7504652.634 -22886264.106 10 0 59468 24300.00000 0 -7798341.430 -10212497.038 -22041563.578 10 0 59468 25200.00000 0 -7415247.070 -12831429.319 -20769081.947 10 0 59468 26100.00000 0 -7253805.573 -15292017.153 -19093541.340 10 0 59468 27000.00000 0 -7291388.234 -17529397.151 -17047473.735 10 0 59468 27900.00000 0 -7494291.268 -19485781.700 -14670591.475 10 0 59468 28800.00000 0 -7819322.468 -21112682.536 -12009019.420 10 0 59468 29700.00000 0 -8215798.716 -22372759.220 -9114403.120 10 0 59468 30600.00000 0 -8627870.002 -23241216.049 -6042909.805 10 0 59468 31500.00000 0 -8997071.785 -23706689.567 -2854141.276 10 0 59468 32400.00000 0 -9264997.848 -23771590.025 390020.476 10 0 59468 33300.00000 0 -9375980.542 -23451882.900 3626612.657 10 0 59468 34200.00000 0 -9279664.906 -22776319.922 6792812.624 10 0 59468 35100.00000 0 -8933367.475 -21785152.206 9827156.663 10 0 59468 36000.00000 0 -8304119.523 -20528379.709 12670732.738 10 0 59468 36900.00000 0 -7370307.746 -19063610.711 15268323.876 10 0 59468 37800.00000 0 -6122842.240 -17453621.315 17569479.919 10 0 59468 38700.00000 0 -4565801.417 -15763717.370 19529496.917 10 0 59468 39600.00000 0 -2716525.479 -14059009.477 21110285.160 10 0 59468 40500.00000 0 -605153.093 -12401715.154 22281109.258 10 0 59468 41400.00000 0 1726380.917 -10848600.906 23019186.129 10 0 59468 42300.00000 0 4225846.389 -9448671.106 23310129.413 10 0 59468 43200.00000 0 6832656.049 -8241200.012 23148231.826 10 0 59468 44100.00000 0 9480161.734 -7254188.963 22536579.916 10 0 59468 45000.00000 0 12098214.090 -6503312.983 21486998.753 10 0 59468 45900.00000 0 14615880.169 -5991400.545 20019827.269 10 0 59468 46800.00000 0 16964206.536 -5708467.959 18163528.050 10 0 59468 47700.00000 0 19078913.151 -5632306.613 15954138.618 10 0 59468 48600.00000 0 20902906.011 -5729597.975 13434574.231 10 0 59468 49500.00000 0 22388503.736 -5957509.027 10653795.272 10 0 59468 50400.00000 0 23499284.936 -6265700.333 7665855.142 10 0 59468 51300.00000 0 24211478.962 -6598661.397 4528847.081 10 0 59468 52200.00000 0 24514841.780 -6898273.810 1303770.571 10 0 59468 53100.00000 0 24412980.213 -7106492.961 -1946660.091 10 0 59468 54000.00000 0 23923111.297 -7168033.829 -5159241.265 10 0 59468 54900.00000 0 23075267.298 -7032946.147 -8271514.869 10 0 59468 55800.00000 0 21910980.488 -6658968.981 -11222987.822 10 0 59468 56700.00000 0 20481503.791 -6013564.132 -13956311.635 10 0 59468 57600.00000 0 18845642.933 -5075541.597 -16418398.727 10 0 59468 58500.00000 0 17067291.962 -3836207.674 -18561453.437 10 0 59468 59400.00000 0 15212776.246 -2299986.706 -20343897.770 10 0 59468 60300.00000 0 13348114.729 -484489.613 -21731174.273 10 0 59468 61200.00000 0 11536316.258 1579974.200 -22696410.947 10 0 59468 62100.00000 0 9834822.842 3851421.757 -23220936.098 10 0 59468 63000.00000 0 8293206.138 6277716.116 -23294633.919 10 0 59468 63900.00000 0 6951212.567 8798517.878 -22916134.654 10 0 59468 64800.00000 0 5837237.597 11347588.155 -22092836.290 10 0 59468 65700.00000 0 4967291.656 13855347.963 -20840757.744 10 0 59468 66600.00000 0 4344499.664 16251588.363 -19184226.573 10 0 59468 67500.00000 0 3959153.852 18468219.525 -17155407.159 10 0 59468 68400.00000 0 3789316.534 20441945.101 -14793678.229 10 0 59468 69300.00000 0 3801946.648 22116751.239 -12144871.378 10 0 59468 70200.00000 0 3954501.951 23446107.123 -9260384.865 10 0 59468 71100.00000 0 4196948.908 24394785.712 -6196189.388 10 0 59468 72000.00000 0 4474095.170 24940228.944 -3011744.815 10 0 59468 72900.00000 0 4728145.906 25073400.593 231151.391 10 0 59468 73800.00000 0 4901375.739 24799091.251 3469561.833 10 0 59468 74700.00000 0 4938803.094 24135662.759 6640629.559 10 0 59468 75600.00000 0 4790753.528 23114242.891 9682797.404 10 0 59468 76500.00000 0 4415203.198 21777404.085 12537002.498 10 0 59468 77400.00000 0 3779802.866 20177381.683 15147822.520 10 0 59468 78300.00000 0 2863496.197 18373906.323 17464551.408 10 0 59468 79200.00000 0 1657663.106 16431741.250 19442183.691 10 0 59468 80100.00000 0 166738.916 14418027.564 21042288.373 10 0 59468 81000.00000 0 -1591718.050 12399548.287 22233755.621 10 0 59468 81900.00000 0 -3587514.761 10440025.331 22993401.994 10 0 59468 82800.00000 0 -5778848.657 8597562.054 23306422.604 10 0 59468 83700.00000 0 -8113828.409 6922337.768 23166681.550 10 0 59468 84600.00000 0 -10532428.228 5454650.037 22576834.950 10 0 59468 85500.00000 0 -12968795.423 4223386.102 21548283.950 99